Location: La Janais
(48.1042°N, 1.7520°W)
Time: 00:51:46
(UTC+00:00)

Daily predictions for brighter satellites

Satellite Brightness Start Highest point End
(mag) Time Altitude Azimuth Time Altitude Azimuth Time Altitude Azimuth
ATLAS 3B R/B 3.9 03:41:56 37° NNE 03:41:56 37° NNE 03:46:15 10° NE
CZ-4C R/B 4.2 03:38:51 27° NNE 03:38:51 27° NNE 03:45:11 10° E
H-2A R/B 4.5 03:46:49 10° NE 03:50:08 18° E 03:53:29 10° SE
COSMOS 2428 3.9 04:04:27 38° ESE 04:04:27 38° ESE 04:09:31 10° NE
Cosmos 2333 Rocket 4.1 04:08:53 23° NNE 04:08:53 23° NNE 04:10:54 10° NNE
CENTAUR R/B 3.9 04:04:39 37° N 04:06:41 43° NNE 04:15:06 10° ESE
BREEZE M DEB (TANK) 4.0 04:09:07 72° ESE 04:09:07 72° ESE 04:23:02 10° ESE
Cosmos 2278 Rocket 3.4 04:11:19 37° NE 04:11:20 37° NE 04:16:33 10° ESE
Lacrosse 5 rocket 3.4 04:35:42 26° NE 04:35:42 26° NE 04:37:39 10° NE
Cosmos 2322 4.0 04:34:58 61° NE 04:34:58 61° NE 04:39:41 10° NNE
Cosmos 1428 Rocket 4.5 04:38:34 48° N 04:40:24 78° E 04:46:31 10° SSE
USA 267 3.9 04:34:51 10° ENE 04:40:56 42° N 04:41:48 40° NNW
Cosmos 1943 Rocket 3.4 04:46:58 26° N 04:49:20 37° NE 04:54:24 10° ESE
Cosmos 2219 Rocket 3.0 04:52:17 38° N 04:52:17 38° N 04:55:58 10° NNE
Cosmos 2360 Rocket 3.9 04:53:37 20° N 04:53:37 20° N 04:55:43 10° NNE
Meteor 2-3 Rocket 3.6 04:52:55 37° S 04:55:12 88° ESE 05:00:51 10° NNE
USA 229 DEB 3.4 04:59:43 65° W 05:00:23 70° NW 05:07:16 10° NE
USA 229 3.4 04:59:44 65° W 05:00:26 70° NW 05:07:19 10° NE
USA 281 3.8 04:54:28 10° NNE 05:00:56 56° ESE 05:07:21 10° S
Cosmos 1110 Rocket 3.9 05:03:20 77° SW 05:03:20 77° SW 05:08:30 10° SSE
Cosmos 1627 Rocket 4.4 05:00:09 10° N 05:06:35 86° W 05:12:55 10° S
Cosmos 494 Rocket 4.4 05:08:37 47° N 05:08:37 47° N 05:12:28 10° NNE
IRS-1C 4.0 05:02:32 10° NNE 05:07:54 87° ESE 05:13:14 10° SSW
NOSS 3-1 (A) 4.1 05:10:44 34° NNW 05:10:44 34° NNW 05:16:06 10° NE
ATLAS 5 CENTAUR R/B 4.1 05:12:30 10° SSE 05:14:30 15° ESE 05:16:36 10° ENE
Cosmos 2322 Rocket 4.0 05:16:57 16° N 05:16:57 16° N 05:18:49 10° N
CZ-2D R/B 3.4 05:16:32 10° NNE 05:20:27 76° ESE 05:24:24 10° S
Cosmos 1500 4.4 05:17:24 10° SSE 05:20:42 38° E 05:24:01 10° NNE
CZ-3 R/B 4.2 05:09:37 17° WSW 05:21:18 29° SSW 05:28:27 10° SE
Cosmos 1302 Rocket 4.2 05:19:22 28° NNW 05:22:10 70° ENE 05:27:22 10° SSE
ERS-1 4.3 05:17:33 10° NNE 05:22:32 84° WNW 05:27:30 10° SSW
Cosmos 1437 Rocket 3.3 05:20:28 10° S 05:24:03 53° E 05:27:39 10° NNE
COSMO-SKYMED 1 2.4 05:20:07 10° S 05:24:27 78° WSW 05:25:07 62° NW
CZ-4C R/B 3.2 05:23:59 25° NNW 05:28:28 65° NE 05:36:53 10° SE
Cosmos 2369 Rocket 4.1 05:24:55 10° N 05:29:28 24° NE 05:33:59 10° E
H-2A R/B 1.8 05:25:06 10° N 05:29:59 65° WNW 05:34:57 10° SSW
ATLAS 3B R/B 3.7 05:29:12 28° NW 05:30:45 30° NNW 05:37:23 10° NE
ARGOS 3.6 05:26:42 10° NNE 05:32:05 63° ESE 05:37:23 10° S
Cosmos 1842 Rocket 3.6 05:31:56 17° N 05:35:18 79° E 05:39:46 10° SSE
BREEZE-M DEB (TANK) 2.4 05:35:17 57° WNW 05:35:58 85° NNE 05:43:44 10° ESE
NOSS 0 Rocket 3.8 05:30:03 10° SSW 05:36:19 82° WNW 05:42:36 10° NNE
Cosmos 1980 3.7 05:33:07 10° SSW 05:38:47 84° ESE 05:44:30 10° NNE
IRS-P3 4.0 05:33:58 10° N 05:39:15 65° WNW 05:44:30 10° SSW
Cosmos 2034 Rocket 4.4 05:38:05 27° WSW 05:40:31 37° WNW 05:46:19 10° N
Cosmos 1452 Rocket 4.2 05:42:45 33° WSW 05:42:45 33° WSW 05:47:06 10° SSW
Cosmos 1076 Rocket 3.5 05:40:16 10° S 05:44:34 82° E 05:48:57 10° N
Meteor 2-6 Rocket 4.1 05:38:53 10° NNW 05:44:41 84° W 05:50:15 10° S
SL-16 R/B 4.3 05:46:01 11° NNW 05:46:01 11° NNW 05:46:49 10° N
ARIANE 5 R/B 2.7 05:40:55 10° N 05:45:57 50° WNW 05:50:58 10° SW
Geosat 4.3 05:40:57 10° NNE 05:45:59 68° ESE 05:50:58 10° SSW
COSMOS 2428 3.1 05:46:32 31° W 05:48:30 41° NW 05:53:55 10° NNE
Cosmos 2026 Rocket 4.3 05:43:45 10° NNW 05:49:42 43° W 05:55:34 10° SSW
Cosmos 2333 Rocket 3.7 05:50:54 19° NNW 05:50:54 19° NNW 05:54:26 10° N
Cosmos 2221 3.1 05:50:59 35° WSW 05:50:59 35° WSW 05:54:30 10° SSW
FengYun 1-2 T 4.1 05:45:04 10° NNE 05:50:41 80° WNW 05:56:14 10° SSW
GENESIS II 4.0 05:50:03 20° SW 05:52:36 86° NW 05:56:30 10° NE
CZ-2C R/B 4.3 05:49:37 10° NNE 05:53:11 38° E 05:56:46 10° SSE
Cosmos 2278 Rocket 2.6 05:53:12 29° WNW 05:55:28 42° WSW 06:00:44 10° S
CENTAUR R/B 3.3 05:51:49 19° NW 05:58:11 77° SW 06:07:19 10° SSE
Cosmos 2266 Rocket 4.1 05:54:33 10° N 06:00:39 75° E 06:06:48 10° SSE
Helios 1B rocket 2.8 05:59:12 10° NNE 06:03:10 65° ESE 06:07:07 10° S
Cosmos 2237 Rocket 2.1 05:57:33 10° SW 06:03:12 70° WNW 06:08:51 10° NNE
SeaSat 1 4.0 05:59:43 10° ESE 06:03:59 31° NE 06:08:16 10° NNW
Cosmos 1378 3.1 06:03:21 31° NW 06:04:38 49° W 06:07:58 10° S
NOSS 3-2 (A) 4.1 06:00:42 18° NW 06:06:41 83° SW 06:15:24 10° SSE
SL-08 R/B 3.7 06:03:13 10° SSW 06:07:35 39° W 06:10:33 18° NW
Intercosmos 25 Rocket 3.8 06:06:53 10° S 06:10:31 78° E 06:16:07 10° NNE
Cosmos 2180 Rocket 4.5 06:05:32 10° SSW 06:11:51 78° W 06:18:18 10° N
Lacrosse 5 rocket 2.4 06:10:48 25° NW 06:12:21 31° NNW 06:16:18 10° NE
CZ-3B R/B 4.1 06:08:38 21° WNW 06:12:51 79° SW 06:36:41 10° SE
Cosmos 2151 3.4 06:12:00 10° SW 06:15:57 38° WNW 06:19:57 10° N
Meteor 2-12 Rocket 4.4 06:10:16 10° N 06:16:24 84° W 06:22:32 10° S
Spot 4 Rocket 4.0 06:11:38 10° N 06:16:43 62° WNW 06:21:47 10° SSW
Cosmos 1461 2.9 06:16:37 10° SW 06:21:05 86° NW 06:25:28 10° NE
Cosmos 2297 4.1 06:16:05 10° NNW 06:21:43 64° ENE 06:27:17 10° SE
USA 267 3.5 06:16:55 10° ESE 06:23:23 67° NNE 06:29:08 14° NW
Cosmos 1151 Rocket 3.7 06:19:20 10° N 06:23:36 57° ENE 06:27:52 10° SSE
Cosmos 1666 2.7 06:21:39 10° SSW 06:25:03 45° WNW 06:28:28 10° N
PSLV R/B 3.8 06:22:42 10° N 06:26:49 46° WNW 06:30:54 10° SW
Meteor 1-31 Rocket 3.2 06:28:47 10° NNE 06:32:34 65° ESE 06:36:21 10° S
Cosmos 1943 Rocket 2.6 06:28:31 13° NW 06:33:07 41° WSW 06:38:13 10° S
NOAA 12 4.5 06:29:20 10° N 06:34:15 40° WNW 06:39:07 10° SW
USA 238 DEB 4.3 06:27:37 10° NW 06:34:49 65° NE 06:42:34 10° SE
USA 238 4.3 06:27:41 10° NW 06:34:53 64° NE 06:42:36 10° SE
Cosmos 2219 Rocket 3.8 06:34:02 14° NW 06:35:36 15° NW 06:38:48 10° N
ERS-2 1.9 06:33:59 10° N 06:36:45 39° WNW 06:39:29 10° SW
Elektron 3 4.0 06:35:31 16° NW 06:37:48 84° SW 06:42:16 10° SE
Cosmos 1269 Rocket 4.0 06:34:49 10° SSW 06:40:05 86° WNW 06:45:24 10° NNE
USA 281 3.7 06:39:17 10° NNE 06:45:13 37° NW 06:51:07 10° WSW
Meteor 1-27 Rocket 3.7 06:41:25 10° NNW 06:46:56 67° W 06:52:22 10° S
SMAP 3.0 06:43:32 10° NNE 06:48:13 80° WNW 06:52:52 10° SSW
Okean 1 3.1 06:45:06 10° NNW 06:48:58 74° W 06:52:46 10° S
Meteor 1-20 Rocket 4.1 06:46:01 10° SSW 06:51:28 78° WNW 06:56:59 10° N
AQUARIUS 4.2 06:47:51 10° NNE 06:52:20 89° WNW 06:56:48 10° SSW
Meteor 2-4 Rocket 4.4 06:47:33 10° N 06:53:16 59° ENE 06:59:04 10° SSE
CZ-4C R/B 3.5 06:51:20 10° S 06:55:32 79° WSW 06:59:46 10° NNW
Cosmos 1328 Rocket 4.2 06:52:05 10° N 06:56:29 59° ENE 07:00:52 10° SSE
ATLAS 5 CENTAUR R/B 1.2 06:54:37 10° WSW 06:57:59 52° NW 07:01:49 10° NE
NOSS 2-1 (E) 3.8 06:55:50 10° SSW 06:59:02 48° SE 07:01:59 10° NE
Cosmos 1437 Rocket 4.4 06:58:26 10° W 07:00:15 13° WNW 07:02:04 10° NW
CORIOLIS 4.2 06:55:05 10° NNE 07:00:32 75° WNW 07:05:57 10° SSW
SL-16 R/B 2.2 06:56:35 10° SSW 07:02:16 75° WNW 07:07:59 10° NNE
H-2A R/B 3.7 07:07:12 10° NW 07:08:29 11° NW 07:09:45 10° WNW
ARGOS 4.2 07:07:46 10° N 07:11:53 23° WNW 07:15:59 10° WSW
